2023/09/14 00:00:00, 1.6,24.1
2023/09/14 00:10:00, 1.5,24.2
2023/09/14 00:20:00, 1.2,24.1
2023/09/14 00:30:00, 1.2,24.1
2023/09/14 00:40:00, 1.3,24.2
2023/09/14 00:50:00, 1.3,24.2
2023/09/14 01:00:00, 1.6,24.3
2023/09/14 01:10:00, 6.0,24.1
2023/09/14 01:20:00, 7.1,24.1
2023/09/14 01:30:00, 1.5,24.1
2023/09/14 01:40:00, 1.5,24.0
2023/09/14 01:50:00, 1.5,24.0
2023/09/14 02:00:00, 1.5,24.0
2023/09/14 02:10:00, 1.5,24.0
2023/09/14 02:20:00, 1.5,24.0
2023/09/14 02:30:00, 1.5,24.1
2023/09/14 02:40:00,---,24.0
2023/09/14 02:50:00, 1.6,24.0
2023/09/14 03:00:00, 2.0,24.2
2023/09/14 03:10:00, 2.5,24.1
2023/09/14 03:20:00, 6.8,24.1
2023/09/14 03:30:00, 6.9,24.4
2023/09/14 03:40:00, 6.8,24.4
2023/09/14 03:50:00, 6.5,24.2
2023/09/14 04:00:00, 3.3,24.4
2023/09/14 04:10:00, 1.7,24.0
2023/09/14 04:20:00, 1.7,24.4
2023/09/14 04:30:00, 1.6,24.1
2023/09/14 04:40:00, 1.6,24.2
2023/09/14 04:50:00, 6.0,24.1
2023/09/14 05:00:00, 7.8,24.2
2023/09/14 05:10:00,10.7,24.0
2023/09/14 05:20:00,---,24.0
2023/09/14 05:30:00, 1.9,24.1
2023/09/14 05:40:00, 1.9,24.0
2023/09/14 05:50:00, 5.3,23.7
2023/09/14 06:00:00, 7.4,24.0
2023/09/14 06:10:00, 8.0,24.2
2023/09/14 06:20:00, 5.8,24.4
2023/09/14 06:30:00, 2.0,24.3
2023/09/14 06:40:00, 1.8,24.3
2023/09/14 06:50:00, 1.8,24.7
2023/09/14 07:00:00,11.2,24.7
2023/09/14 07:10:00, 5.2,24.7
2023/09/14 07:20:00, 8.7,24.6
2023/09/14 07:30:00, 8.5,24.7
2023/09/14 07:40:00, 8.5,24.5
2023/09/14 07:50:00, 8.7,24.7
2023/09/14 08:00:00, 9.2,24.6
2023/09/14 08:10:00, 6.9,24.8
2023/09/14 08:20:00, 6.8,24.7
2023/09/14 08:30:00,13.6,24.6
2023/09/14 08:40:00, 1.9,24.9
2023/09/14 08:50:00, 1.8,24.8
2023/09/14 09:00:00, 1.7,24.5
2023/09/14 09:10:00, 1.5,24.4
2023/09/14 09:20:00, 1.7,24.0
2023/09/14 09:30:00, 1.6,24.3
2023/09/14 09:40:00, 2.5,24.4
2023/09/14 09:50:00, 7.7,24.3
2023/09/14 10:00:00, 8.2,24.0
2023/09/14 10:10:00, 8.2,24.0
2023/09/14 10:20:00, 5.4,24.1
2023/09/14 10:30:00, 1.8,23.9
2023/09/14 10:40:00, 1.7,24.0
2023/09/14 10:50:00, 1.6,24.0
2023/09/14 11:00:00, 1.6,24.1
2023/09/14 11:10:00, 1.8,24.3
2023/09/14 11:20:00, 9.2,24.1
2023/09/14 11:30:00, 6.9,24.1
2023/09/14 11:40:00, 1.9,24.2
2023/09/14 11:50:00, 1.8,24.0
2023/09/14 12:00:00, 2.1,23.9
2023/09/14 12:10:00, 5.9,24.1
2023/09/14 12:20:00, 8.6,24.4
2023/09/14 12:30:00, 0.3,24.0
2023/09/14 12:40:00, 0.3,24.2
2023/09/14 12:50:00, 0.3,24.1
2023/09/14 13:00:00, 1.0,24.1
2023/09/14 13:10:00, 1.6,24.3
2023/09/14 13:20:00, 4.3,24.8
2023/09/14 13:30:00,10.1,25.7
2023/09/14 13:40:00, 9.6,26.1
2023/09/14 13:50:00, 2.3,26.9
2023/09/14 14:00:00, 2.0,26.5
2023/09/14 14:10:00, 2.1,26.7
2023/09/14 14:20:00, 8.5,26.1
2023/09/14 14:30:00, 9.5,26.2
2023/09/14 14:40:00, 9.8,26.3
2023/09/14 14:50:00, 6.0,26.7
2023/09/14 15:00:00, 1.8,26.4
2023/09/14 15:10:00, 1.9,25.8
2023/09/14 15:20:00, 4.8,25.8
2023/09/14 15:30:00, 3.8,25.8
2023/09/14 15:40:00, 2.1,25.6
2023/09/14 15:50:00, 2.0,25.7
2023/09/14 16:00:00, 2.1,25.5
2023/09/14 16:10:00, 4.8,25.3
2023/09/14 16:20:00, 9.0,25.1
2023/09/14 16:30:00, 9.0,25.5
2023/09/14 16:40:00, 1.9,25.4
2023/09/14 16:50:00, 1.8,25.4
2023/09/14 17:00:00, 1.9,25.1
2023/09/14 17:10:00, 4.3,25.0
2023/09/14 17:20:00, 5.2,24.7
2023/09/14 17:30:00, 2.1,24.6
2023/09/14 17:40:00, 2.0,23.8
2023/09/14 17:50:00, 2.1,24.3
2023/09/14 18:00:00, 2.1,24.0
2023/09/14 18:10:00, 3.9,24.0
2023/09/14 18:20:00, 6.4,23.6
2023/09/14 18:30:00, 5.7,23.6
2023/09/14 18:40:00, 5.0,23.4
2023/09/14 18:50:00, 4.5,23.2
2023/09/14 19:00:00, 4.2,23.3
2023/09/14 19:10:00, 4.7,23.2
2023/09/14 19:20:00, 2.1,23.0
2023/09/14 19:30:00, 1.8,23.0
2023/09/14 19:40:00, 1.7,23.0
2023/09/14 19:50:00, 1.9,23.1
2023/09/14 20:00:00, 2.1,23.1
2023/09/14 20:10:00, 2.1,23.0
2023/09/14 20:20:00, 2.1,22.8
2023/09/14 20:30:00, 3.3,22.8
2023/09/14 20:40:00, 4.2,22.9
2023/09/14 20:50:00, 2.1,22.8
2023/09/14 21:00:00, 1.6,22.5
2023/09/14 21:10:00, 1.6,22.6
2023/09/14 21:20:00, 1.7,22.4
2023/09/14 21:30:00, 1.7,22.3
2023/09/14 21:40:00, 1.7,22.3
2023/09/14 21:50:00, 1.7,22.2
2023/09/14 22:00:00, 1.6,22.2
2023/09/14 22:10:00, 1.7,22.4
2023/09/14 22:20:00, 1.7,22.2
2023/09/14 22:30:00, 1.7,22.1
2023/09/14 22:40:00, 1.1,22.4
2023/09/14 22:50:00, 0.1,22.1
2023/09/14 23:00:00, 0.0,22.2
2023/09/14 23:10:00, 0.0,22.2
2023/09/14 23:20:00, 0.1,22.1
2023/09/14 23:30:00, 0.1,22.3
2023/09/14 23:40:00, 0.2,22.2
2023/09/14 23:50:00, 0.2,22.3
